Lander, WY

10:17 PM MDT on March 27, 2017 (GMT -0600)
Hunt

Weather History for KLND - January, 2014

Change the Weather History Date:

Monday, January 13, 2014

  Actual Average Record
Temperature  
Mean Temperature 33 °F 22 °F  
Max Temperature 43 °F 33 °F 58 °F (1953)
Min Temperature 22 °F 10 °F -32 °F (1963)
Degree Days  
Heating Degree Days 32 43  
Month to date heating degree days 580 568  
Since 1 July heating degree days 3853 3814  
Cooling Degree Days 0 0  
Month to date cooling degree days 0 0  
Year to date cooling degree days 0 0  
Moisture  
Dew Point 17 °F    
Average Humidity 54    
Maximum Humidity 68    
Minimum Humidity 40    
Precipitation  
Precipitation 0.00 in 0.01 in 0.45 in (1984)
Month to date precipitation 0.47 0.18  
Year to date precipitation 0.47 0.18  
Snow  
Snow 0.00 in 0.30 in - ()
Month to date snowfall 7.2 3.3  
Since 1 July snowfall 49.8 39.0  
Snow Depth -    
Sea Level Pressure  
Sea Level Pressure 29.99 in    
Wind  
Wind Speed 7 mph (SSE)    
Max Wind Speed 29 mph    
Max Gust Speed 35 mph    
Visibility 10 miles    
Events      
T = Trace of Precipitation, MM = Missing Value Source: NWS Daily Summary

Daily Weather History Graph

Daily Weather History Graph

Search for Another Location

Airport or City:

Trip Planner

Search our weather history database for the weather conditions in past years. The results will help you decide how hot, cold, wet, or windy it might be!

Date:

Astronomy

Jan. 13, 2014 Rise Set
Actual Time 7:43 AM MST 5:04 PM MST
Civil Twilight 7:12 AM MST 5:35 PM MST
Nautical Twilight 6:37 AM MST 6:10 PM MST
Astronomical Twilight 6:03 AM MST 6:44 PM MST
Moon 3:22 PM MST (1/13) 5:34 AM MST (1/13)
Length of Visible Light 10h 23m
Length of Day
9h 20m
Waxing Gibbous, 95% of the Moon is Illuminated
Jan 13
Waxing Gibbous
Jan 15
Full
Jan 23
Last Quarter
Jan 30
New
Feb 6
First Quarter

Hourly Weather History & Observations

Time (MST) Temp. Windchill Dew Point Humidity Pressure Visibility Wind Dir Wind Speed Gust Speed Precip Events Conditions
12:53 AM 24.1 °F 18.2 °F 12.0 °F 60% 29.94 in 10.0 mi WNW 4.6 mph - N/A   Clear
1:53 AM 21.9 °F 13.4 °F 12.9 °F 68% 29.98 in 10.0 mi NNW 6.9 mph - N/A   Clear
2:53 AM 27.0 °F 19.5 °F 10.9 °F 51% 29.96 in 10.0 mi SW 6.9 mph - N/A   Clear
3:53 AM 24.1 °F - 10.9 °F 57% 29.99 in 10.0 mi Calm Calm - N/A   Partly Cloudy
4:53 AM 25.0 °F - 12.0 °F 58% 29.99 in 10.0 mi Calm Calm - N/A   Clear
5:53 AM 24.1 °F - 10.9 °F 57% 29.97 in 10.0 mi Calm Calm - N/A   Clear
6:53 AM 23.0 °F 18.4 °F 12.9 °F 65% 29.99 in 10.0 mi Variable 3.5 mph - N/A   Partly Cloudy
7:53 AM 27.0 °F - 12.0 °F 53% 30.01 in 10.0 mi Calm Calm - N/A   Clear
8:53 AM 35.1 °F 29.3 °F 15.1 °F 44% 30.00 in 10.0 mi SSE 6.9 mph - N/A   Clear
9:53 AM 34.0 °F 27.2 °F 18.0 °F 52% 29.99 in 10.0 mi ESE 8.1 mph - N/A   Clear
10:53 AM 39.9 °F 35.8 °F 21.9 °F 49% 29.99 in 10.0 mi SSE 5.8 mph - N/A   Clear
11:53 AM 41.0 °F 37.1 °F 21.0 °F 45% 29.94 in 10.0 mi SE 5.8 mph - N/A   Clear
12:53 PM 39.9 °F 33.4 °F 21.0 °F 47% 29.94 in 10.0 mi SSE 10.4 mph - N/A   Clear
1:53 PM 39.9 °F 34.5 °F 21.0 °F 47% 29.96 in 10.0 mi SSE 8.1 mph - N/A   Clear
2:53 PM 41.0 °F 39.0 °F 19.9 °F 43% 29.96 in 10.0 mi SSW 3.5 mph - N/A   Clear
3:53 PM 42.1 °F 35.7 °F 24.1 °F 49% 29.96 in 10.0 mi SE 11.5 mph - N/A   Clear
4:53 PM 39.9 °F 32.1 °F 19.9 °F 45% 29.97 in 10.0 mi SSW 13.8 mph - N/A   Clear
5:53 PM 37.9 °F 28.2 °F 19.0 °F 47% 29.99 in 10.0 mi SE 18.4 mph - N/A   Clear
6:53 PM 37.9 °F 28.5 °F 19.0 °F 47% 30.00 in 10.0 mi SSE 17.3 mph - N/A   Clear
7:53 PM 37.0 °F 26.2 °F 19.0 °F 48% 30.04 in 10.0 mi SE 21.9 mph 32.2 mph N/A   Clear
8:53 PM 37.9 °F 32.7 °F 16.0 °F 41% 30.03 in 10.0 mi ESE 6.9 mph - N/A   Clear
9:53 PM 32.0 °F 28.7 °F 17.1 °F 54% 30.08 in 10.0 mi SW 3.5 mph - N/A   Clear
10:53 PM 34.0 °F 31.0 °F 16.0 °F 48% 30.06 in 10.0 mi South 3.5 mph - N/A   Clear
11:53 PM 33.1 °F 28.7 °F 14.0 °F 46% 30.10 in 10.0 mi SW 4.6 mph - N/A   Clear